www.pogodaiklimat.ru

Погода и климат >> Архив погоды >> Колумбия >> Вильявисенсьо


ПОГОДА в Вильявисенсьо

  • Прогноз погоды в Вильявисенсьо
  • Монитор погоды в Вильявисенсьо

АРХИВ ПОГОДЫ в Вильявисенсьо

Время (UTC), дата Ветер
(напр.,м/с)
 
Видим.   Явления Облачность Т
(С)
Тd
(С)
f
(%)
Тe
(С)
Тes
(С)
Комфортность P
(гПа)
Po
(гПа)
Тmin
(С)
Tmax
(С)
R
(мм)
R24
(мм)
S
(см)
18 15.03 ЮЗ 3 5000 м слаб. морось {дождь} 10/9 300 м
[Frnb Ac As]
+23.0 +22.3 96 +31 +32 очень
душно
1013.0 963.4 81
21 15.03 ЮЗ 3 5000 м слаб. морось {дождь} 10/9 300 м
[Frnb Ac As]
+23.0 +22.3 96 +31 +32 очень
душно
1013.0 963.4 81
00 16.03 штиль 0 12 км {морось} 10/4 500 м
[St Ac As]
+22.0 +21.0 94 +28 +28 душно 1009.0 960.0 +25.8 2
12 16.03 штиль 0 10 км мгла 10/5 600 м
[Sc Ac As]
+22.7 +21.0 90 +30 +30 очень
душно
1011.0 961.5 +20.7 83
15 16.03 штиль 0 10 км мгла 10/5 600 м
[Sc Ac As]
+26.5 +22.2 77 +34 +38 очень
душно
1013.0 963.4
18 16.03 Ю 1 10 км мгла 10/1 600 м
[Sc Ac trans Ci fib]
+31.0 +20.1 52 +37 +48 очень
душно
1010.0 960.6
21 16.03 СВ 3 10 км мгла 6/1 600 м
[Sc Ac trans Ci fib]
+31.0 +20.4 53 +38 +40 очень
душно
1006.0 956.7
12 17.03 штиль 0 8000 м мгла 10/3 700 м
[Sc Ac As Ci sp]
+24.6 +20.4 77 +30 +31 очень
душно
1011.0 961.8 +21.3 1
15 17.03 штиль 0 8000 м мгла 9/1 700 м
[Sc Ac As Ci sp]
+29.0 +20.9 62 +36 +48 очень
душно
1012.0 962.6
18 17.03 В 3 8000 м мгла 9/3 600 м
[Sc Ac trans Ci sp]
+30.2 +20.1 55 +37 +44 очень
душно
1009.0 960.3
21 17.03 СЗ 2 8000 м мгла 5/4 600 м
[Sc Ac trans Ci fib]
+31.0 +19.9 52 +37 +40 очень
душно
1006.0 957.2
12 18.03 штиль 0 8000 м мгла 10/5 600 м
[St Ac trans]
+23.5 +21.7 90 +30 +31 очень
душно
1010.0 961.0 +22.4
15 18.03 штиль 0 8000 м мгла 8/3 600 м
[Sc Ac trans Ci fib]
+27.6 +21.2 68 +35 +45 очень
душно
1012.0 962.8
18 18.03 ЮВ 2 8000 м мгла 8/4 600 м
[Sc Ac trans Ci fib]
+30.7 +20.8 56 +38 +46 очень
душно
1009.0 960.0
21 18.03 ЮЗ 2 8000 м мгла 10/4 600 м
[Sc Ac As Ci sp]
+25.3 +21.9 81 +33 +34 очень
душно
1007.0 958.1
12 19.03 З 2 8000 м мгла 10/4 700 м
[Sc Ac As Ci sp]
+24.6 +21.2 81 +31 +32 очень
душно
1011.0 961.6 +22.6 0.6
15 19.03 З 2 8000 м мгла 10/3 700 м
[Sc Ac trans Ci sp]
+28.2 +20.6 63 +35 +41 очень
душно
1012.0 963.2
18 19.03 СЗ 2 8000 м мгла 10/4 700 м
[Sc Ac trans Ci fib]
+32.0 +19.6 48 +38 +44 очень
душно
1010.0 961.0
21 19.03 С 7 7000 м слаб. дождь 10/4 700 м
[Sc Ac trans Ci fib]
+26.5 +20.9 71 +33 +34 очень
душно
1007.0 958.0
12 20.03 штиль 0 8000 м мгла 10/5 600 м
[St Ac As]
+22.8 +21.1 90 +30 +31 очень
душно
1010.0 961.2 +21.7 13
15 20.03 штиль 0 8000 м мгла 10/5 600 м
[St Ac As]
+25.4 +22.6 85 +33 +37 очень
душно
1013.0 963.5
18 20.03 З 2 8000 м мгла 10/4 600 м
[Sc Ac As Ci sp]
+27.2 +21.7 72 +35 +41 очень
душно
1011.0 961.8
21 20.03 ЮЗ 1 8000 м 9/3 600 м
[Sc Ac trans Ci sp]
+29.7 +21.2 60 +37 +40 очень
душно
1007.0 958.4
12 21.03 З 2 8000 м мгла 10/5 700 м
[Sc Ac As]
+23.7 +20.8 84 +30 +30 очень
душно
1010.0 961.2 +22.2
15 21.03 ЮЗ 1 8000 м мгла 10/4 700 м
[Sc Ac As Ci sp]
+27.3 +21.6 71 +35 +41 очень
душно
1012.0 962.8
18 21.03 В 5 8000 м слаб. морось {дождь} 10/5 600 м
[Sc Ac As]
+24.6 +18.8 70 +29 +31 душно 1010.0 960.8 0.1
21 21.03 штиль 0 8000 м мгла {дождь} 4/1 700 м
[Sc Ac trans Ci fib]
+28.6 +22.9 71 +38 +43 очень
душно
1005.0 956.2
00 22.03 штиль 0 8000 м мгла 8/1 700 м
[Sc Ac trans Ci sp]
+25.6 +21.2 77 +32 +32 очень
душно
1007.0 958.0 +31.8 3
12 22.03 штиль 0 8000 м мгла 8/1 700 м
[Sc Ac trans Ci sp]
+23.0 +19.2 79 +29 +31 очень
душно
1010.0 961.2 +21.6 3
15 22.03 штиль 0 8000 м мгла 9/1 700 м
[Sc Ac trans Ci sp]
+28.4 +20.9 64 +36 +47 очень
душно
1012.0 963.0

 

Местоположение метеостанции Вильявисенсьо (Колумбия): широта 4.17 долгота -73.61 высота над уровнем моря 431 м.

В архиве по умолчанию представлена погода в Вильявисенсьо за последнюю неделю. Архивные данные за месяц целиком и за предыдущие месяцы, начиная с января 2011 года, Вы можете получить, выбрав интересующий диапазон дат из раскрывающегося списка и нажав кнопку "Ввод!".


*Определитесь, кто Вы:
робот инопланетянин человек

Внимание! Время в таблицах - всемирное. Для получения местного времени необходимо прибавить поправку, которая равна -5 ч.

Смотрите также архив погоды в соседних городах и на ближайших метеорологических станциях:

Погода в Боготе (Колумбия) (82 км)
Погода в Ибаге (Колумбия) (173 км)
Погода в Нейве (Колумбия) (230 км)
Погода в Армении (Колумбия) (236 км)
Погода в Перейре (Колумбия) (246 км)
Погода в Рионегро (Колумбия) (297 км)
Погода в Кали (Колумбия) (315 км)
Погода в Медельине (Колумбия) (317 км)
Погода в Барранкабермехе (Колумбия) (318 км)
Погода в Букараманге (Колумбия) (329 км)

Пояснения к столбцам:

Ветер - указаны скорость ветра в м/с - средняя за 10 мин, порывы в срок и между сроками (в фигурных скобках) и направление, откуда дует ветер: С - северный, СВ - северо-восточный, В - восточный, ЮВ - юго-восточный, Ю - южный, ЮЗ - юго-западный, З - западный, СЗ - северо-западный.
Видимость - горизонтальная дальность видимости в метрах или километрах. При видимости от 1 до 10 км при отсутствии осадков обычно наблюдается дымка, при ухудшении видимости до 1 км и менее - туман. В сухую погоду видимость может ухудшаться дымом, пылью или мглою.
Явления - указаны атмосферные явления, наблюдавшиеся в срок или в последний час перед сроком; фигурными скобками обозначены явления, наблюдавшиеся между сроками (за 1-3 часа до срока); квадратными скобками обозначены град или гололедные отложения с указанием их диаметра в мм.
Облачность - указаны через наклонную черту общая и нижняя облачность в баллах и высота нижней границы облаков в метрах; квадратными скобками обозначены формы облаков: Ci - перистые, Cs - перисто-слоистые, Cc - перисто-кучевые, Ac - высококучевые, As - высокослоистые, Sc - слоисто-кучевые, Ns - слоисто-дождевые, Cu - кучевые, Cb - кучево-дождевые. Подробнее классификацию облаков см. в Атласе облаков (PDF).
T - Температура воздуха - температура, измеренная на высоте 2 м над землей.
Td - Температура точки росы - температура, при понижении до которой содержащийся в воздухе водяной пар достигнет насыщения.
f - Относительная влажность воздуха - влажноcть воздуха, измеренная на высоте 2 м над землей.
Te - Эффективная температура - температура, которую ощущает одетый по сезону человек в тени. Характеристика душности погоды. При расчете учитывается влияние влажности воздуха и скорости ветра на теплоощущения человека.
Tes - Эффективная температура на солнце - температура, которую ощущает человек, с поправкой на солнечный нагрев. Характеристика знойности погоды. Зависит от высоты солнца над горизонтом, облачности и скорости ветра. Ночью, в пасмурную погоду, а также при ветре 12 м/с и более поправка равна нулю.
P - Атмосферное давление - приведенное к уровню моря атмосферное давление.
Po - Атмосферное давление - измеренное на уровне метеостанции атмосферное давление.
Tmin - Минимальная температура - минимум температуры воздуха на высоте 2 м над землей.
Tmax - Максимальная температура - максимум температуры воздуха на высоте 2 м над землей.
R - Количество осадков - Количество выпавших осадков за период времени, мм. При наведении курсора мыши на число - период времени, за который выпало указанное количество осадков.
R24 - Количество осадков - Количество выпавших осадков за 24 часа, мм.
S - Снежный покров - Высота снежного покрова, см. При наведении курсора мыши на число - состояние снежного покрова и степень покрытия местности в баллах.